| time (UTC) | temp C | wind direction | speed KPH | gust KPH | rain 1hr cm | rain 24hr cm | rain mn cm | humidity % | barometer mb |
| 20260505084604 | 13 | 128 | 3.2 | 3.2 | 0.00 | 0.00 | 0.00 | 76 | 1023.2 |
| 20260505083104 | 13 | 129 | 1.6 | 6.4 | 0.00 | 0.00 | 0.00 | 75 | 1023.2 |
| 20260505081604 | 14 | 129 | 3.2 | 6.4 | 0.00 | 0.00 | 0.00 | 74 | 1023.0 |
| 20260505074603 | 15 | 129 | 3.2 | 8.0 | 0.00 | 0.00 | 0.00 | 72 | 1022.9 |
| 20260505073103 | 15 | 0 | 0.0 | 1.6 | 0.00 | 0.00 | 0.00 | 75 | 1022.9 |
| 20260505071604 | 15 | 0 | 0.0 | 0.0 | 0.00 | 0.00 | 0.00 | 74 | 1022.6 |
| 20260505064604 | 15 | 0 | 0.0 | 0.0 | 0.00 | 0.00 | 0.00 | 76 | 1022.4 |
| 20260505063104 | 15 | 0 | 0.0 | 0.0 | 0.00 | 0.00 | 0.00 | 74 | 1022.2 |
| 20260505061603 | 15 | 0 | 0.0 | 3.2 | 0.00 | 0.00 | 0.00 | 71 | 1022.3 |
| 20260505054603 | 15 | 128 | 0.0 | 9.7 | 0.00 | 0.00 | 0.00 | 72 | 1022.1 |
| 20260505053103 | 16 | 129 | 4.8 | 6.4 | 0.00 | 0.00 | 0.00 | 69 | 1021.7 |
| 20260505051603 | 15 | 0 | 0.0 | 3.2 | 0.00 | 0.00 | 0.00 | 74 | 1021.7 |
| 20260505041603 | 15 | 128 | 3.2 | 6.4 | 0.00 | 0.00 | 0.00 | 80 | 1021.6 |
| 20260505034603 | 14 | 128 | 3.2 | 4.8 | 0.00 | 0.00 | 0.00 | 80 | 1021.8 |
| 20260505033103 | 14 | 0 | 0.0 | 9.7 | 0.00 | 0.00 | 0.00 | 81 | 1021.7 |
| 20260505031604 | 13 | 128 | 6.4 | 11.3 | 0.00 | 0.00 | 0.00 | 81 | 1021.7 |
| 20260505024603 | 14 | 128 | 3.2 | 6.4 | 0.00 | 0.00 | 0.00 | 83 | 1022.2 |
| 20260505023103 | 13 | 0 | 0.0 | 6.4 | 0.00 | 0.00 | 0.00 | 85 | 1022.2 |
| 20260505021603 | 13 | 0 | 0.0 | 6.4 | 0.00 | 0.00 | 0.00 | 86 | 1022.2 |
| 20260505014604 | 12 | 128 | 1.6 | 6.4 | 0.00 | 0.00 | 0.00 | 87 | 1022.1 |
| 20260505013104 | 12 | 128 | 4.8 | 8.0 | 0.00 | 0.00 | 0.00 | 89 | 1022.3 |
| 20260505011603 | 12 | 128 | 1.6 | 11.3 | 0.00 | 0.00 | 0.00 | 90 | 1022.1 |
| 20260505004603 | 12 | 128 | 3.2 | 4.8 | 0.00 | 0.00 | 0.00 | 91 | 1022.2 |
| 20260505003103 | 11 | 129 | 1.6 | 8.0 | 0.00 | 0.00 | 0.00 | 93 | 1022.0 |
| 20260505001603 | 11 | 129 | 3.2 | 9.7 | 0.00 | 0.00 | 0.00 | 94 | 1022.0 |
| 20260504234603 | 10 | 128 | 4.8 | 9.7 | 0.00 | 0.00 | 0.00 | 95 | 1022.2 |
| 20260504233103 | 10 | 129 | 6.4 | 9.7 | 0.00 | 0.00 | 0.00 | 95 | 1022.0 |
| 20260504231603 | 10 | 128 | 8.0 | 11.3 | 0.00 | 0.00 | 0.00 | 95 | 1022.0 |
| 20260504224603 | 10 | 129 | 4.8 | 6.4 | 0.00 | 0.00 | 0.00 | 95 | 1021.8 |
| 20260504223104 | 9 | 129 | 1.6 | 4.8 | 0.00 | 0.00 | 0.00 | 95 | 1021.6 |
| 20260504221604 | 9 | 0 | 0.0 | 3.2 | 0.00 | 0.00 | 0.00 | 95 | 1021.4 |
| 20260504214603 | 8 | 129 | 1.6 | 3.2 | 0.00 | 0.00 | 0.00 | 95 | 1020.9 |
| 20260504213103 | 8 | 128 | 1.6 | 4.8 | 0.00 | 0.00 | 0.00 | 95 | 1020.5 |
| 20260504211603 | 8 | 129 | 1.6 | 1.6 | 0.00 | 0.00 | 0.00 | 95 | 1020.4 |
| 20260504210101 | 8 | 128 | 0.0 | 3.2 | 0.00 | 0.00 | 0.00 | 95 | 1020.2 |
| 20260504204603 | 8 | 0 | 0.0 | 6.4 | 0.00 | 0.00 | 0.00 | 95 | 1019.8 |
| 20260504203104 | 8 | 129 | 1.6 | 4.8 | 0.00 | 0.00 | 0.00 | 95 | 1019.8 |
| 20260504201604 | 8 | 128 | 1.6 | 4.8 | 0.00 | 0.00 | 0.00 | 95 | 1019.6 |
| 20260504194603 | 9 | 129 | 3.2 | 3.2 | 0.00 | 0.00 | 0.00 | 95 | 1019.5 |
| 20260504193103 | 9 | 129 | 1.6 | 6.4 | 0.00 | 0.00 | 0.00 | 95 | 1019.2 |
| 20260504191604 | 9 | 0 | 0.0 | 4.8 | 0.00 | 0.00 | 0.00 | 94 | 1019.3 |
| 20260504184604 | 10 | 128 | 3.2 | 6.4 | 0.00 | 0.00 | 0.00 | 94 | 1018.6 |
| 20260504183103 | 10 | 129 | 3.2 | 6.4 | 0.00 | 0.00 | 0.00 | 94 | 1018.6 |
| 20260504181604 | 10 | 129 | 1.6 | 6.4 | 0.00 | 0.00 | 0.00 | 94 | 1018.6 |
| 20260504174604 | 10 | 128 | 3.2 | 6.4 | 0.00 | 0.00 | 0.00 | 94 | 1018.4 |
| 20260504173104 | 10 | 129 | 4.8 | 8.0 | 0.00 | 0.00 | 0.00 | 93 | 1018.5 |
| 20260504171603 | 10 | 128 | 4.8 | 8.0 | 0.00 | 0.00 | 0.00 | 93 | 1018.3 |